Weather History for PAMR - April, 2012

Change the Weather History Date:

Tuesday, April 24, 2012

  Actual Average Record
Temperature  
Mean Temperature 41 °F -  
Max Temperature 51 °F 48 °F 59 °F (1998)
Min Temperature 32 °F 31 °F 24 °F (2002)
Degree Days  
Heating Degree Days 24    
Moisture  
Dew Point 26 °F    
Average Humidity 57    
Maximum Humidity 79    
Minimum Humidity 36    
Precipitation  
Precipitation 0.00 in - - ()
Sea Level Pressure  
Sea Level Pressure 29.79 in    
Wind  
Wind Speed 2 mph (WNW)    
Max Wind Speed 8 mph    
Max Gust Speed -    
Visibility 10 miles    
Events      
Averages and records for this station are not official NWS values.
T = Trace of Precipitation, MM = Missing Value Source: NWS Daily Summary

Daily Weather History Graph

Daily Weather History Graph

Search for Another Location

Airport or City:

Trip Planner

Search our weather history database for the weather conditions in past years. The results will help you decide how hot, cold, wet, or windy it might be!

Date:

Astronomy

Apr. 24, 2012 Rise Set
Actual Time 6:09 AM AKDT 9:47 PM AKDT
Civil Twilight 5:16 AM AKDT 10:40 PM AKDT
Nautical Twilight 3:57 AM AKDT 12:02 AM AKDT
Astronomical Twilight 2:29 AM AKDT 1:24 AM AKDT
Moon 7:21 AM AKDT (4/24) 1:13 AM AKDT (4/24)
Length of Visible Light 17h 24m
Length of Day
15h 38m
Waxing Crescent, 11% of the Moon is Illuminated
Apr 24
Waxing Crescent
Apr 29
First Quarter
May 5
Full
May 12
Last Quarter
May 20
New

Hourly Weather History & Observations

Time (AKDT) Temp. Windchill Dew Point Humidity Pressure Visibility Wind Dir Wind Speed Gust Speed Precip Events Conditions
12:53 AM 39.0 °F - 25.0 °F 57% 29.81 in 10.0 mi Calm Calm - N/A   Clear
1:53 AM 36.0 °F - 25.0 °F 64% 29.81 in 10.0 mi Calm Calm - N/A   Clear
2:53 AM 34.0 °F - 25.0 °F 70% 29.81 in 10.0 mi Calm Calm - N/A   Clear
3:53 AM 32.0 °F - 26.1 °F 79% 29.81 in 10.0 mi Calm Calm - N/A   Scattered Clouds
4:53 AM 33.1 °F - 26.1 °F 75% 29.81 in 10.0 mi Calm Calm - N/A   Scattered Clouds
5:53 AM 33.1 °F - 27.0 °F 78% 29.80 in 10.0 mi Calm Calm - N/A   Partly Cloudy
6:53 AM 32.0 °F - 25.0 °F 75% 29.80 in 10.0 mi Calm Calm - N/A   Partly Cloudy
7:53 AM 33.1 °F - 27.0 °F 78% 29.81 in 10.0 mi Calm Calm - N/A   Scattered Clouds
8:53 AM 36.0 °F - 26.1 °F 67% 29.81 in 10.0 mi Calm Calm - N/A   Clear
9:53 AM 39.9 °F - 28.9 °F 65% 29.80 in 10.0 mi Calm Calm - N/A   Scattered Clouds
10:53 AM 44.1 °F 40.8 °F 27.0 °F 51% 29.79 in 10.0 mi West 5.8 mph - N/A   Scattered Clouds
11:53 AM 45.0 °F 41.8 °F 25.0 °F 46% 29.79 in 10.0 mi NW 5.8 mph - N/A   Clear
12:53 PM 46.0 °F 44.8 °F 24.1 °F 42% 29.78 in 10.0 mi NW 3.5 mph - N/A   Clear
1:53 PM 48.0 °F - 25.0 °F 41% 29.78 in 10.0 mi WNW 4.6 mph - N/A   Clear
2:53 PM 48.0 °F - 26.1 °F 42% 29.77 in 10.0 mi NW 6.9 mph - N/A   Clear
3:53 PM 50.0 °F - 26.1 °F 39% 29.76 in 10.0 mi NW 4.6 mph - N/A   Clear
4:53 PM 50.0 °F - 24.1 °F 36% 29.76 in 10.0 mi West 8.1 mph - N/A   Clear
5:53 PM 48.0 °F - 25.0 °F 41% 29.76 in 10.0 mi WNW 6.9 mph - N/A   Clear
6:53 PM 46.9 °F - 24.1 °F 41% 29.76 in 10.0 mi West 6.9 mph - N/A   Partly Cloudy
7:53 PM 44.1 °F 40.8 °F 30.0 °F 58% 29.77 in 10.0 mi NW 5.8 mph - N/A   Clear
8:53 PM 44.1 °F - 30.0 °F 58% 29.78 in 10.0 mi Calm Calm - N/A   Clear
9:53 PM 45.0 °F 41.8 °F 24.1 °F 44% 29.79 in 10.0 mi SSW 5.8 mph - N/A   Scattered Clouds
11:53 PM 39.9 °F - 28.0 °F 63% 29.80 in 10.0 mi Calm Calm - N/A   Clear